Location: Churchill Northern Studies Centre
(58.7378°N, 93.8201°W)
Time: 03:00:47
(UTC-05:00)

N. Korean satellite - Pass Details

Date: 09 October 2017
Orbit: 459 x 517 km, 97.2° (Epoch: 22 October)

Event Time Altitude Azimuth Distance (km) Brightness Sun altitude
Rises 20:25:30 0° 213° (SSW) 2,559 10.5 -16.4°
Reaches altitude 10° 20:28:25 10° 240° (WSW) 1,670 9.9 -16.7°
Maximum altitude 20:30:22 14° 273° (W) 1,433 10.1 -17.0°
Drops below altitude 10° 20:32:18 10° 306° (NW) 1,660 10.4 -17.2°
Sets 20:35:12 0° 333° (NNW) 2,533 10.9 -17.6°
